Hamilton, OH

11:07 PM EDT on June 26, 2017 (GMT -0400)
Butler County Regional

Weather History for KHAO - June, 2013

Change the Weather History Date:

Thursday, June 27, 2013

  Actual Average (KLUK) Record (KLUK)
Temperature  
Mean Temperature 78 °F -  
Max Temperature 88 °F 84 °F 99 °F (1971)
Min Temperature 68 °F 63 °F 51 °F (1961)
Cooling Degree Days 12    
Growing Degree Days 28 (Base 50)    
Moisture  
Dew Point 69 °F    
Average Humidity 83    
Maximum Humidity 97    
Minimum Humidity 55    
Precipitation  
Precipitation 0.03 in - - ()
Sea Level Pressure  
Sea Level Pressure 29.77 in    
Wind  
Wind Speed 2 mph (West)    
Max Wind Speed 10 mph    
Max Gust Speed 17 mph    
Visibility 8 miles    
Events Rain    
Averages and records for this station are not official NWS values.
T = Trace of Precipitation, MM = Missing Value Source: NWS Daily Summary

Daily Weather History Graph

Daily Weather History Graph

Search for Another Location

Airport or City:

Trip Planner

Search our weather history database for the weather conditions in past years. The results will help you decide how hot, cold, wet, or windy it might be!

Date:

Astronomy

Jun. 27, 2013 Rise Set
Actual Time 6:13 AM EDT 9:08 PM EDT
Civil Twilight 5:41 AM EDT 9:41 PM EDT
Nautical Twilight 5:00 AM EDT 10:22 PM EDT
Astronomical Twilight 4:12 AM EDT 11:09 PM EDT
Moon No Moon Rise 11:11 AM EDT
Length of Visible Light 16h 00m
Length of Day
14h 55m
Waning Gibbous, 76% of the Moon is Illuminated
Jun 27
Waning Gibbous
Jun 30
Last Quarter
Jul 8
New
Jul 15
First Quarter
Jul 22
Full

Hourly Weather History & Observations

Time (EDT) Temp. Heat Index Dew Point Humidity Pressure Visibility Wind Dir Wind Speed Gust Speed Precip Events Conditions
12:53 AM 69.1 °F - 66.9 °F 93% 29.78 in 10.0 mi Calm Calm - 0.02 in Rain Light Rain
1:39 AM 69.8 °F - 68.0 °F 94% 29.80 in 4.0 mi Calm Calm - 0.00 in   Overcast
1:53 AM 69.1 °F - 68.0 °F 96% 29.79 in 6.0 mi Calm Calm - 0.00 in   Overcast
2:50 AM 69.8 °F - 66.2 °F 88% 29.80 in 7.0 mi Calm Calm - N/A   Mostly Cloudy
2:53 AM 69.1 °F - 66.9 °F 93% 29.78 in 6.0 mi Calm Calm - N/A   Mostly Cloudy
3:13 AM 68.0 °F - 66.2 °F 94% 29.80 in 6.0 mi Calm Calm - N/A   Overcast
3:53 AM 69.1 °F - 66.9 °F 93% 29.77 in 8.0 mi Calm Calm - N/A   Overcast
4:37 AM 69.8 °F - 66.2 °F 88% 29.78 in 10.0 mi Calm Calm - N/A   Overcast
4:53 AM 69.1 °F - 66.9 °F 93% 29.76 in 9.0 mi Calm Calm - N/A   Overcast
5:53 AM 69.1 °F - 68.0 °F 96% 29.77 in 3.0 mi Calm Calm - N/A   Overcast
6:24 AM 69.8 °F - 68.0 °F 94% 29.79 in 2.5 mi Variable 3.5 mph - N/A   Overcast
6:41 AM 69.8 °F - 68.0 °F 94% 29.79 in 3.0 mi Variable 3.5 mph - N/A   Overcast
6:53 AM 69.1 °F - 68.0 °F 96% 29.79 in 3.0 mi West 4.6 mph - N/A   Overcast
7:00 AM 69.8 °F - 68.0 °F 94% 29.79 in 2.5 mi WSW 3.5 mph - N/A   Overcast
7:09 AM 69.8 °F - 68.0 °F 94% 29.80 in 4.0 mi WSW 4.6 mph - N/A   Overcast
7:34 AM 69.8 °F - 68.0 °F 94% 29.80 in 6.0 mi WSW 3.5 mph - N/A   Overcast
7:53 AM 70.0 °F - 69.1 °F 97% 29.78 in 7.0 mi Variable 3.5 mph - N/A   Overcast
8:53 AM 72.0 °F - 69.1 °F 91% 29.78 in 9.0 mi Calm Calm - N/A   Overcast
9:53 AM 73.0 °F - 70.0 °F 90% 29.78 in 7.0 mi Variable 6.9 mph - 0.00 in   Overcast
10:10 AM 73.4 °F - 69.8 °F 88% 29.79 in 9.0 mi Variable 4.6 mph - N/A   Overcast
10:53 AM 75.0 °F - 70.0 °F 84% 29.78 in 10.0 mi WSW 4.6 mph - N/A   Overcast
11:43 AM 77.0 °F - 71.6 °F 83% 29.80 in 10.0 mi West 5.8 mph - N/A   Mostly Cloudy
11:53 AM 78.1 °F - 70.0 °F 76% 29.78 in 10.0 mi WNW 10.4 mph - N/A   Overcast
12:02 PM 78.8 °F - 69.8 °F 74% 29.79 in 10.0 mi NW 8.1 mph - N/A   Mostly Cloudy
12:53 PM 81.0 °F 84.4 °F 70.0 °F 69% 29.78 in 10.0 mi WNW 8.1 mph - 0.01 in   Mostly Cloudy
1:40 PM 82.4 °F 86.3 °F 69.8 °F 66% 29.79 in 10.0 mi Variable 6.9 mph - N/A   Overcast
1:49 PM 82.4 °F 86.3 °F 69.8 °F 66% 29.79 in 10.0 mi WNW 9.2 mph 16.1 mph N/A   Mostly Cloudy
1:53 PM 84.0 °F 89.0 °F 71.1 °F 65% 29.77 in 10.0 mi WNW 8.1 mph 16.1 mph N/A   Mostly Cloudy
2:53 PM 84.9 °F 88.8 °F 69.1 °F 59% 29.77 in 10.0 mi Variable 4.6 mph - N/A   Scattered Clouds
3:53 PM 87.1 °F 92.0 °F 70.0 °F 57% 29.76 in 10.0 mi West 8.1 mph 17.3 mph N/A   Partly Cloudy
4:53 PM 87.1 °F 92.0 °F 70.0 °F 57% 29.75 in 10.0 mi West 8.1 mph - N/A   Scattered Clouds
5:53 PM 87.1 °F 91.3 °F 69.1 °F 55% 29.74 in 10.0 mi WNW 8.1 mph 17.3 mph N/A   Partly Cloudy
6:53 PM 84.0 °F 87.0 °F 68.0 °F 58% 29.73 in 10.0 mi WNW 6.9 mph 17.3 mph N/A   Clear
7:53 PM 82.0 °F 85.5 °F 69.1 °F 65% 29.75 in 10.0 mi WNW 6.9 mph - N/A   Clear
8:53 PM 79.0 °F - 69.1 °F 72% 29.73 in 10.0 mi Calm Calm - N/A   Clear
9:53 PM 73.0 °F - 70.0 °F 90% 29.73 in 10.0 mi Calm Calm - N/A   Clear
10:53 PM 72.0 °F - 69.1 °F 91% 29.72 in 10.0 mi Calm Calm - N/A   Clear
11:53 PM 72.0 °F - 70.0 °F 93% 29.70 in 10.0 mi Calm Calm - N/A   Clear